Weather in Kalinino

Russia / Astrakhan Oblast     46°20′41″N   48°52′40″E
temp.,
°C
wind,
m/s
gust,
m/s
humid.,
%
clouds,
%
prec.,
mm/h
press.,
hPa
HPBL,
m
24 september, fri
fri2401:00+16nne4879100 0.2 1010266
04:00+16nne61180100 0.2 1008370
07:00+17e4874100 0.0 1007327
10:00+19se6956100 0.0 1006510
13:00+21ssw3445100 0.0 1006820
16:00+22wnw884799 0.0 10061105
19:00+14wnw7128086 0.0 1008478
22:00+13wnw71380100 0.0 1010619
25 september, sat
sat2501:00+12wnw61277100 0.0 1011502
04:00+10wnw51277100 0.0 1012367
07:00+10wnw3779100 0.0 1013189
10:00+17nw454831 0.0 1012701
13:00+21nw2435100 0.0 10111499
16:00+21n1336100 0.0 10111656
19:00+17nnw2350100 0.0 101371
22:00+14nw22597 0.0 101429
26 september, sun
sun2601:00+13wnw3461100 0.0 101461
04:00+13wsw4974100 0.0 1015423
07:00+13wsw4981100 0.7 1015463
10:00+17w675875 0.8 1015935
13:00+20w783699 0.0 10142345
16:00+18w5841100 0.0 10141777
19:00+16wsw5948100 0.0 1014911
22:00+15sw51052100 0.0 1013688
27 september, mon
mon2701:00+13sw61386100 0.7 1011790
04:00+14wsw81589100 1.8 1009858
07:00+14w815764 1.8 1008853
10:00+15w913594 1.8 10091410
13:00+16w91244100 0.0 10102042
16:00+16wnw9124591 0.0 10111945
19:00+13wnw6115812 0.0 1013672
22:00+11w511692 0.0 1014380
28 september, tue
tue2801:00+12w5969100 0.0 1015408
04:00+12wnw4874100 0.1 1015310
07:00+11wnw37855 0.1 1017225
10:00+16nnw56565 0.1 1018895
13:00+18nnw574158 0.0 10182004
16:00+18nnw563983 0.0 10191997
19:00+14n575495 0.0 1021710
22:00+12n33575 0.0 1022128